[[{"header":{"parameterUnit":"m.s-1","parameterCategory":1,"la1":30.2991,"la2":30.254,"lo1":-89.0895,"lo2":-89.0444,"dy":0.0017,"dx":0.0017,"nx":28,"ny":28,"refTime":"2025-01-30T03:00:00:Z","depth":0,"parameterNumber":2,"parameterNumberName":"U-component_of_WINDS"},"data":[0,0,0,0,0,0,0,0,0,0,0,0,0,0,0,0,0,0,0,0,0,0,0,0,0,0,0,0,0,0,0,0,0,0,0,0,0,0,0,0,0,0,0,0,0,0,0,0,0,0,0,0,0,0,0,0,0,0,3.8543,3.8542,0,3.8504,3.8503,3.8503,3.8422,3.8421,3.8419,3.8418,3.8378,3.8378,3.8379,0,0,0,0,0,0,0,0,0,0,0,0,0,3.8549,3.8549,3.8543,3.8542,3.8542,3.8504,3.8503,3.8503,3.8423,3.8421,3.8419,3.8417,3.8378,3.8378,3.8379,0,0,0,0,0,0,0,0,0,0,0,0,0,3.8532,3.8549,3.8543,3.8497,3.8493,3.8504,3.8503,3.8503,3.8423,3.8421,3.8418,3.8416,3.8377,3.8378,3.8379,3.8431,0,0,3.8381,3.8381,0,0,0,0,0,0,0,0,3.8533,3.8532,3.8504,3.85,3.8495,3.8465,3.8491,3.8479,3.8424,3.845,3.8418,3.8415,3.8409,3.8407,3.8405,3.8429,3.8428,3.8381,3.8381,3.8382,3.8382,0,0,0,0,0,0,0,3.8534,3.8533,3.8527,3.8504,3.8499,3.8479,3.8474,3.8488,3.8443,3.8447,3.8441,3.8438,3.8406,3.8404,3.8403,3.8427,3.8381,3.8381,3.8382,3.8382,3.8495,3.8497,0,0,0,0,0,0,3.8542,3.8534,3.8528,3.8526,3.8508,3.8481,3.8475,3.8478,3.8443,3.8435,3.844,3.8434,3.8404,3.8403,3.8402,3.8461,3.8382,3.8382,3.8383,3.8492,3.8495,3.8498,0,0,0,0,0,0,3.8542,3.8542,3.853,3.8529,3.8526,3.8483,3.8487,3.8478,3.8476,3.8437,3.8429,3.8446,3.8403,3.8401,3.8425,3.8459,3.8382,3.8383,3.8489,3.8493,3.8497,3.8582,0,0,0,0,0,0,3.8543,3.8543,3.8562,3.853,3.8526,3.8554,3.8489,3.8479,3.8478,3.847,3.8441,3.8434,3.84,3.8424,3.8426,3.8459,3.8384,3.8486,3.8491,3.8495,3.8576,3.8588,3.8598,0,0,0,0,0,3.8543,3.8587,3.8563,3.8563,3.8549,3.8556,3.8554,3.8514,3.8481,3.85,3.8475,3.8435,3.8455,3.8428,3.8428,3.8462,3.8483,3.8489,3.8495,3.857,3.8585,3.8598,0,0,0,0,0,0,3.8623,3.8582,3.8555,3.8589,3.8577,3.8542,3.8565,3.8531,3.8528,3.852,3.8471,3.8466,3.8497,3.8482,3.8451,3.8512,3.8463,3.8469,3.852,3.8534,3.8546,3.8548,3.8384,0,0,0,0,0,3.8645,3.8654,3.8617,3.8651,3.8646,3.8607,3.8609,3.858,3.8565,3.8559,3.8536,3.8523,3.8526,3.8529,3.853,3.8573,3.8566,3.8597,3.8609,3.8618,3.8624,3.8647,3.866,3.8517,3.8517,3.8517,0,0,3.869,3.8668,3.8677,3.8667,3.8654,3.8665,3.8603,3.8617,3.8625,3.8561,3.8582,3.8565,3.8548,3.8582,3.8596,3.8571,3.8662,3.8626,3.8634,3.8634,3.8654,3.8668,3.868,3.8521,3.852,3.852,0,0,3.8777,3.8761,3.8788,3.8777,3.8758,3.8732,3.8739,3.871,3.8697,3.8718,3.8671,3.868,3.8686,3.8676,3.8672,3.8758,3.8722,3.876,3.882,3.8843,3.8854,3.8864,3.8895,3.8907,3.8766,3.8766,3.8767,0,3.8834,3.8849,3.8806,3.8824,3.8821,3.8765,3.8793,3.8784,3.8767,3.8766,3.8738,3.8747,3.8731,3.8763,3.8784,3.8783,3.8789,3.8762,3.8856,3.8865,3.8873,3.8903,3.8915,3.8771,3.8771,3.877,3.877,0,3.8921,3.8932,3.8956,3.8942,3.8942,3.8965,3.8927,3.8932,3.8904,3.8881,3.8904,3.8884,3.888,3.8886,3.8858,3.8914,3.8899,3.8865,3.8814,3.8893,3.8919,3.893,3.8778,3.8776,3.8775,3.8774,0,0,3.9055,3.9019,3.9028,3.9022,3.8998,3.9006,3.9027,3.9024,3.903,3.9021,3.9037,3.9046,3.9014,3.9009,3.898,3.9,3.9071,3.8963,3.8962,3.8984,3.9133,3.9159,3.9172,3.9047,3.9049,3.9051,3.9134,0,3.9136,3.9169,3.9133,3.9174,3.9184,3.9132,3.915,3.9138,3.9118,3.9125,3.9102,3.9109,3.9067,3.9064,3.9082,3.9059,3.91,3.9052,3.9062,3.9063,3.9067,3.9186,3.9213,3.9293,3.9144,3.9146,3.9147,0,3.9235,3.9231,3.9273,3.9249,3.9251,3.9268,3.9264,3.927,3.9256,3.9241,3.9237,3.9202,3.9222,3.9174,3.9201,3.9169,3.9172,3.9161,3.9163,3.9162,3.9109,3.9188,3.9317,3.9329,3.9163,3.9162,3.9161,0,3.9329,3.9334,3.936,3.9356,3.9328,3.9342,3.9331,3.9315,3.9316,3.9312,3.9313,3.9312,3.9311,3.9311,3.9277,3.9246,3.9309,3.9258,3.9296,3.9297,3.931,3.931,3.9442,3.9314,3.9313,3.9313,3.9313,0,3.9423,3.945,3.9402,3.9418,3.9448,3.9407,3.9438,3.9422,3.9409,3.9421,3.9377,3.9389,3.9344,3.9353,3.9327,3.9353,3.9353,3.9341,3.9334,3.9345,3.9346,3.9345,3.9338,3.9316,3.9316,3.9315,3.9314,0,3.9531,3.95,3.9525,3.9498,3.9492,3.9515,3.9492,3.9506,3.9484,3.9501,3.9502,3.9468,3.9476,3.9443,3.9444,3.9427,3.9467,3.945,3.9471,3.9466,3.9506,3.9503,3.9641,3.9657,3.952,3.9521,3.9522,0,3.9593,3.9613,3.9588,3.9594,3.9585,3.9594,3.9596,3.9557,3.9561,3.9548,3.9564,3.9568,3.9569,3.9584,3.956,3.9562,3.9545,3.9593,3.9544,3.9555,3.9545,3.9544,3.9546,3.9603,3.9604,3.9606,3.9607,0,3.9705,3.969,3.9693,3.9693,3.9696,3.9693,3.9688,3.9695,3.9653,3.966,3.9668,3.9669,3.9672,3.9677,3.9674,3.9663,3.9629,3.9623,3.9632,3.9642,3.9654,3.9648,3.9498,3.9619,3.9618,3.9617,3.9617,3.9616,3.9792,3.9808,3.9794,3.98,3.9792,3.9788,3.9801,3.9781,3.9787,3.9786,3.9764,3.9776,3.9764,3.9756,3.975,3.9759,3.9736,3.9749,3.9752,3.9756,3.9763,3.9654,3.9759,3.9758,3.9758,3.9757,3.9757,0,3.9902,3.9891,3.9897,3.9891,3.9897,3.9865,3.9858,3.9864,3.9876,3.9868,3.987,3.988,3.9885,3.9863,3.9865,3.9877,3.9862,3.9879,3.9877,3.9875,3.9783,3.9775,3.9892,3.9892,3.9892,3.9892,3.9892,3.9892,3.9959,3.9985,3.9968,3.9991,3.9979,3.9991,3.999,3.9987,3.998,3.9993,3.9997,3.9983,3.9969,3.997,3.9974,3.9967,3.997,3.9993,3.9981,3.9895,3.9882,3.9869,3.9861,3.9994,3.9994,4.0072,4.0073,4.0074]},{"header":{"parameterUnit":"m.s-1","parameterCategory":1,"la1":30.2991,"la2":30.254,"lo1":-89.0895,"lo2":-89.0444,"dy":0.0017,"dx":0.0017,"nx":28,"ny":28,"refTime":"2025-01-30T03:00:00:Z","depth":0,"parameterNumber":3,"parameterNumberName":"V-component_of_WINDS"},"data":[0,0,0,0,0,0,0,0,0,0,0,0,0,0,0,0,0,0,0,0,0,0,0,0,0,0,0,0,0,0,0,0,0,0,0,0,0,0,0,0,0,0,0,0,0,0,0,0,0,0,0,0,0,0,0,0,0,0,0.8486,0.8486,0,0.8496,0.8496,0.8496,0.8503,0.8503,0.8503,0.8503,0.8511,0.8511,0.8511,0,0,0,0,0,0,0,0,0,0,0,0,0,0.8472,0.8472,0.8486,0.8486,0.8487,0.8496,0.8496,0.8496,0.8503,0.8503,0.8503,0.8503,0.8511,0.8511,0.8511,0,0,0,0,0,0,0,0,0,0,0,0,0,0.848,0.8472,0.8486,0.8491,0.8492,0.8496,0.8496,0.8496,0.8503,0.8503,0.8503,0.8503,0.8511,0.8511,0.8511,0.8511,0,0,0.8512,0.8512,0,0,0,0,0,0,0,0,0.8479,0.848,0.849,0.8491,0.8491,0.8498,0.8494,0.8501,0.8503,0.8498,0.8503,0.8503,0.8506,0.8507,0.8509,0.8511,0.8511,0.8512,0.8512,0.8512,0.8512,0,0,0,0,0,0,0,0.8479,0.848,0.849,0.849,0.8491,0.8492,0.8493,0.8495,0.8502,0.8499,0.8499,0.85,0.8507,0.8508,0.8509,0.8511,0.8512,0.8512,0.8512,0.8512,0.8512,0.8512,0,0,0,0,0,0,0.8478,0.8479,0.849,0.849,0.8485,0.8492,0.8493,0.8496,0.8502,0.8503,0.85,0.8501,0.8508,0.8508,0.8509,0.8508,0.8512,0.8512,0.8512,0.8512,0.8512,0.8512,0,0,0,0,0,0,0.8477,0.8478,0.8489,0.8485,0.8486,0.8492,0.8495,0.8496,0.8498,0.8503,0.8504,0.8501,0.8508,0.8509,0.851,0.8508,0.8512,0.8513,0.8513,0.8512,0.8512,0.8506,0,0,0,0,0,0,0.8477,0.8478,0.8479,0.8485,0.8487,0.8491,0.8495,0.8496,0.8498,0.8499,0.8504,0.8505,0.8508,0.851,0.851,0.8509,0.8513,0.8513,0.8512,0.8512,0.8506,0.8506,0.8505,0,0,0,0,0,0.8476,0.8477,0.8479,0.848,0.8487,0.8491,0.8492,0.8496,0.8498,0.8498,0.8501,0.8504,0.8508,0.851,0.851,0.8509,0.8513,0.8513,0.8512,0.8507,0.8506,0.8505,0,0,0,0,0,0,0.847,0.8478,0.848,0.8483,0.8486,0.8492,0.8492,0.8495,0.8498,0.8498,0.8503,0.8504,0.8504,0.8507,0.8508,0.8508,0.8511,0.8511,0.8506,0.8505,0.8505,0.8504,0.8513,0,0,0,0,0,0.8469,0.8472,0.8478,0.848,0.8481,0.8486,0.8488,0.8491,0.8495,0.8496,0.8499,0.8502,0.8504,0.8505,0.8507,0.8507,0.8507,0.8506,0.8505,0.8504,0.8504,0.8503,0.8502,0.8511,0.8511,0.8511,0,0,0.8467,0.8472,0.8473,0.8478,0.8482,0.8483,0.8488,0.849,0.8491,0.8496,0.8497,0.85,0.8503,0.8503,0.8503,0.8505,0.8502,0.8504,0.8503,0.8503,0.8502,0.8501,0.8501,0.8511,0.8511,0.8511,0,0,0.8464,0.8468,0.847,0.8472,0.8477,0.848,0.848,0.8485,0.8487,0.8488,0.8492,0.8493,0.8496,0.8498,0.8499,0.8495,0.8498,0.8496,0.8492,0.849,0.849,0.8489,0.8487,0.8486,0.8495,0.8495,0.8495,0,0.8461,0.8465,0.847,0.8471,0.8473,0.8478,0.8478,0.8481,0.8485,0.8486,0.8488,0.8491,0.8494,0.8494,0.8492,0.8494,0.8493,0.8495,0.849,0.8489,0.8488,0.8486,0.8485,0.8495,0.8495,0.8495,0.8495,0,0.846,0.8462,0.8462,0.8467,0.8469,0.847,0.8474,0.8475,0.8477,0.848,0.848,0.8483,0.8485,0.8486,0.8488,0.8486,0.8486,0.8489,0.8492,0.8487,0.8485,0.8484,0.8495,0.8495,0.8495,0.8495,0,0,0.8454,0.8461,0.8461,0.8462,0.8466,0.8468,0.8468,0.8471,0.8471,0.8473,0.8473,0.8475,0.8477,0.8479,0.8481,0.848,0.8475,0.8482,0.8483,0.848,0.8471,0.8469,0.8468,0.8477,0.8477,0.8477,0.847,0,0.8452,0.8454,0.8457,0.8458,0.8459,0.8463,0.8463,0.8466,0.8468,0.8468,0.847,0.8471,0.8474,0.8475,0.8474,0.8476,0.8473,0.8477,0.8476,0.8476,0.8474,0.8467,0.8465,0.8459,0.847,0.8469,0.8469,0,0.8449,0.8451,0.8452,0.8455,0.8456,0.8456,0.8458,0.8459,0.846,0.8462,0.8463,0.8465,0.8465,0.8468,0.8467,0.8469,0.8468,0.8469,0.8469,0.8469,0.8472,0.8465,0.8457,0.8456,0.8468,0.8468,0.8468,0,0.8444,0.8447,0.8448,0.8449,0.8453,0.8452,0.8454,0.8456,0.8457,0.8458,0.8458,0.8459,0.8459,0.8459,0.8461,0.8463,0.8459,0.8463,0.8459,0.8459,0.8458,0.8458,0.8449,0.8459,0.8459,0.8459,0.8459,0,0.8441,0.8441,0.8445,0.8445,0.8445,0.8449,0.8448,0.8449,0.8451,0.8451,0.8454,0.8453,0.8457,0.8456,0.8458,0.8456,0.8456,0.8456,0.8457,0.8456,0.8456,0.8455,0.8456,0.8459,0.8459,0.8459,0.8459,0,0.8435,0.8438,0.8439,0.8442,0.8443,0.8442,0.8444,0.8444,0.8446,0.8445,0.8445,0.8448,0.8447,0.845,0.845,0.845,0.8447,0.8448,0.8446,0.8447,0.8443,0.8443,0.8433,0.8431,0.8443,0.8443,0.8443,0,0.8433,0.8433,0.8435,0.8436,0.8437,0.8437,0.8438,0.8441,0.8441,0.8442,0.8441,0.8441,0.8441,0.8439,0.8441,0.844,0.8441,0.8437,0.8441,0.8439,0.844,0.844,0.8439,0.8437,0.8436,0.8436,0.8436,0,0.8427,0.8429,0.8429,0.843,0.8431,0.8431,0.8432,0.8432,0.8435,0.8435,0.8434,0.8434,0.8433,0.8433,0.8432,0.8432,0.8434,0.8435,0.8434,0.8433,0.8431,0.8431,0.8444,0.8435,0.8435,0.8435,0.8435,0.8435,0.8423,0.8422,0.8424,0.8424,0.8425,0.8426,0.8425,0.8426,0.8426,0.8426,0.8428,0.8426,0.8426,0.8426,0.8426,0.8424,0.8426,0.8425,0.8424,0.8424,0.8423,0.8432,0.8424,0.8424,0.8424,0.8424,0.8424,0,0.8417,0.8418,0.8418,0.8419,0.8419,0.8421,0.8422,0.8421,0.842,0.842,0.842,0.8418,0.8417,0.8418,0.8416,0.8415,0.8415,0.8414,0.8414,0.8414,0.8422,0.8423,0.8413,0.8413,0.8413,0.8413,0.8413,0.8413,0.8414,0.8413,0.8414,0.8413,0.8414,0.8413,0.8413,0.8413,0.8413,0.8411,0.841,0.841,0.841,0.8409,0.8407,0.8407,0.8406,0.8404,0.8405,0.8412,0.8413,0.8414,0.8415,0.8404,0.8404,0.8396,0.8396,0.8396]}]]